Weather History for Needles, CA

Change the Weather History Date:

Saturday, November 16, 2013

  Actual Average Record
Temperature  
Mean Temperature 65 °F -  
Max Temperature 73 °F 72 °F 84 °F (1981)
Min Temperature 57 °F 47 °F 35 °F (1955)
Growing Degree Days 15 (Base 50)    
Moisture  
Dew Point 39 °F    
Average Humidity 39    
Maximum Humidity 55    
Minimum Humidity 24    
Precipitation  
Precipitation 0.00 in - - ()
Sea Level Pressure  
Sea Level Pressure 29.69 in    
Wind  
Wind Speed 8 mph (SW)    
Max Wind Speed 15 mph    
Max Gust Speed 22 mph    
Visibility 10 miles    
Events      
Averages and records for this station are not official NWS values.
T = Trace of Precipitation, MM = Missing Value Source: NWS Daily Summary

Daily Weather History Graph

Daily Weather History Graph

Search for Another Location

Airport:

Trip Planner

Search our weather history database for the weather conditions in past years. The results will help you decide how hot, cold, wet, or windy it might be!

Date:

Astronomy

Nov. 16, 2013 Rise Set
Actual Time 6:13 AM PST 4:32 PM PST
Civil Twilight 5:46 AM PST 4:59 PM PST
Nautical Twilight 5:16 AM PST 5:29 PM PST
Astronomical Twilight 4:46 AM PST 5:59 PM PST
Moon 4:09 PM PST (11/16) 5:16 AM PST (11/16)
Length of Visible Light 11h 12m
Length of Day
10h 18m
Waxing Gibbous, 99% of the Moon is Illuminated
Nov 16
Waxing Gibbous
Nov 17
Full
Nov 25
Last Quarter
Dec 2
New
Dec 9
First Quarter

Hourly Weather History & Observations

Time (PST) Temp. Dew Point Humidity Pressure Visibility Wind Dir Wind Speed Gust Speed Precip Events Conditions
12:56 AM 62.1 °F 25.0 °F 24% 29.57 in 10.0 mi SSW 4.6 mph - N/A   Clear
1:56 AM 59.0 °F 32.0 °F 36% 29.59 in 10.0 mi South 11.5 mph - N/A   Clear
2:56 AM 57.9 °F 37.0 °F 46% 29.60 in 10.0 mi WNW 5.8 mph - N/A   Clear
3:56 AM 57.9 °F 37.9 °F 47% 29.61 in 10.0 mi West 5.8 mph - N/A   Clear
4:56 AM 57.0 °F 41.0 °F 55% 29.61 in 10.0 mi WSW 13.8 mph - N/A   Clear
5:56 AM 57.0 °F 41.0 °F 55% 29.63 in 10.0 mi West 12.7 mph - N/A   Clear
6:56 AM 59.0 °F 41.0 °F 51% 29.67 in 10.0 mi West 9.2 mph - N/A   Clear
7:56 AM 63.0 °F 41.0 °F 45% 29.69 in 10.0 mi Calm Calm - N/A   Clear
8:56 AM 66.0 °F 43.0 °F 43% 29.70 in 10.0 mi NE 4.6 mph - N/A   Clear
9:56 AM 68.0 °F 42.1 °F 39% 29.73 in 10.0 mi East 3.5 mph - N/A   Clear
10:56 AM 71.1 °F 41.0 °F 34% 29.70 in 10.0 mi SSW 13.8 mph - N/A   Clear
11:56 AM 72.0 °F 39.9 °F 31% 29.66 in 10.0 mi SSW 10.4 mph 19.6 mph N/A   Clear
12:56 PM 73.0 °F 41.0 °F 31% 29.64 in 10.0 mi SSW 15.0 mph 21.9 mph N/A   Clear
1:56 PM 73.0 °F 39.9 °F 30% 29.65 in 10.0 mi South 11.5 mph 19.6 mph N/A   Partly Cloudy
2:56 PM 73.0 °F 37.9 °F 28% 29.66 in 10.0 mi South 13.8 mph - N/A   Partly Cloudy
3:56 PM 72.0 °F 39.0 °F 30% 29.67 in 10.0 mi SSW 13.8 mph - N/A   Partly Cloudy
4:56 PM 69.1 °F 39.0 °F 33% 29.68 in 10.0 mi South 10.4 mph - N/A   Clear
5:56 PM 68.0 °F 39.0 °F 35% 29.70 in 10.0 mi South 11.5 mph - N/A   Clear
6:56 PM 66.9 °F 37.9 °F 34% 29.73 in 10.0 mi SSW 9.2 mph - N/A   Clear
7:56 PM 64.9 °F 37.9 °F 37% 29.76 in 10.0 mi SW 5.8 mph - N/A   Clear
8:56 PM 63.0 °F 37.9 °F 40% 29.78 in 10.0 mi SSW 6.9 mph - N/A   Clear
9:56 PM 60.1 °F 37.9 °F 44% 29.79 in 10.0 mi SW 4.6 mph - N/A   Clear
10:56 PM 57.0 °F 37.0 °F 47% 29.81 in 10.0 mi Calm Calm - N/A   Clear
11:56 PM 57.0 °F 37.9 °F 49% 29.82 in 10.0 mi West 6.9 mph - N/A   Clear